,

(GMT )
Banff

Weather History for CWZG - January, 2013

Change the Weather History Date:

Friday, January 18, 2013

  Actual Average Record
Temperature  
Mean Temperature 36 °F -  
Max Temperature 39 °F - - ()
Min Temperature 33 °F - - ()
Degree Days  
Heating Degree Days 28    
Moisture  
Dew Point 18 °F    
Average Humidity 47    
Maximum Humidity 52    
Minimum Humidity 41    
Precipitation  
Precipitation 0.00 in - - ()
Sea Level Pressure  
Sea Level Pressure 29.95 in    
Wind  
Wind Speed 7 mph ()    
Max Wind Speed 10 mph    
Max Gust Speed 25 mph    
T = Trace of Precipitation, MM = Missing Value Source: Averaged Metar Reports

Daily Weather History Graph

Daily Weather History Graph

Search for Another Location

Airport or City:

Trip Planner

Search our weather history database for the weather conditions in past years. The results will help you decide how hot, cold, wet, or windy it might be!

Date:

Astronomy

Jan. 18, 2013 Rise Set
Actual Time 8:36 AM MST 5:09 PM MST
Civil Twilight 7:58 AM MST 5:47 PM MST
Nautical Twilight 7:17 AM MST 6:28 PM MST
Astronomical Twilight 6:38 AM MST 7:07 PM MST
Moon 11:20 AM MST (1/18) 12:58 AM MST (1/18)
Length of Visible Light 9h 48m
Length of Day
8h 32m
Waxing Crescent, 48% of the Moon is Illuminated
Jan 18
Waxing Crescent
Jan 18
First Quarter
Jan 26
Full
Feb 3
Last Quarter
Feb 10
New

Hourly Weather History & Observations

Time (MST) Temp. Windchill Dew Point Humidity Pressure Visibility Wind Dir Wind Speed Gust Speed Precip Events Conditions
12:00 AM 34.2 °F 27.5 °F 16.5 °F 49% 29.96 in - WSW 8.1 mph - N/A   Unknown
1:00 AM 36.7 °F 30.5 °F 15.1 °F 41% 29.94 in - West 8.1 mph 18.4 mph N/A   Unknown
2:00 AM 37.2 °F 30.6 °F 15.3 °F 41% 29.95 in - West 9.2 mph 19.6 mph N/A   Unknown
3:00 AM 36.1 °F 29.9 °F 16.7 °F 45% 29.94 in - WSW 8.1 mph - N/A   Unknown
4:00 AM 36.7 °F 29.4 °F 18.1 °F 47% 29.92 in - WSW 10.4 mph 19.6 mph N/A   Unknown
5:00 AM 37.4 °F 30.3 °F 19.0 °F 48% 29.90 in - West 10.4 mph 25.3 mph N/A   Unknown
6:00 AM 37.6 °F 30.5 °F 18.9 °F 47% 29.88 in - WSW 10.4 mph 23.0 mph N/A   Unknown
7:00 AM 37.4 °F 30.3 °F 19.0 °F 48% 29.88 in - WSW 10.4 mph 19.6 mph N/A   Unknown
8:00 AM 37.4 °F 31.4 °F 19.2 °F 48% 29.90 in - West 8.1 mph 24.2 mph N/A   Unknown
9:00 AM 37.0 °F 30.4 °F 18.9 °F 48% 29.92 in - West 9.2 mph 24.2 mph N/A   Unknown
10:00 AM 36.3 °F 30.8 °F 20.1 °F 52% 29.96 in - West 6.9 mph - N/A   Unknown
11:00 AM 37.2 °F 31.9 °F 20.3 °F 50% 29.96 in - West 6.9 mph - N/A   Unknown
2:00 PM 39.7 °F 33.7 °F 18.1 °F 42% 29.91 in - West 9.2 mph 19.6 mph N/A   Unknown
3:00 PM 38.7 °F 32.4 °F 19.8 °F 47% 29.91 in - West 9.2 mph 24.2 mph N/A   Unknown
4:00 PM 38.7 °F 31.8 °F 19.6 °F 46% 29.93 in - West 10.4 mph 21.9 mph N/A   Unknown
5:00 PM 38.3 °F 32.5 °F 18.9 °F 46% 29.96 in - West 8.1 mph 20.7 mph N/A   Unknown
6:00 PM 37.0 °F 31.6 °F 17.4 °F 45% 29.97 in - West 6.9 mph - N/A   Unknown
7:00 PM 35.4 °F 29.7 °F 17.6 °F 48% 30.00 in - West 6.9 mph - N/A   Unknown
8:00 PM 34.2 °F 29.0 °F 17.6 °F 51% 30.01 in - West 5.8 mph - N/A   Unknown
9:00 PM 34.7 °F 30.6 °F 16.2 °F 47% 30.04 in - West 4.6 mph - N/A   Unknown
10:00 PM 34.2 °F 28.2 °F 16.0 °F 47% 30.06 in - WSW 6.9 mph - N/A   Unknown
11:00 PM 33.3 °F 27.9 °F 16.0 °F 49% 30.08 in - WSW 5.8 mph - N/A   Unknown